Retour au catalogue

STARLINK-35196

ActifCommunicationsVLEO
NORAD 66007·PAYLOAD·🇺🇸 United States

Lancé Oct 16, 2025 depuis Cape Canaveral Space Force Station

Loading…

Prochains Passages (prochaines 24 heures)

TLE

FraisSource: CelesTrak SupGP

Époque: Sep 15, 2026, 03:38 UTC

1 66007C 25232C   26258.15187500  .00019896  00000+0  58778-3 0  2581
2 66007  53.1573 302.3577 0001228  89.3050 303.4174 15.34383459    18

Suivez STARLINK-35196 en temps réel avec AllMySat

Download on the App Store